Location: Kalberh�ni
(46.4610°N, 7.2453°E)
Time: 09:05:49
(UTC+00:00)

Cosmos 1455 - Pass Details

Date: 27 October 2021
Orbit: 496 x 520 km, 82.5° (Epoch: 27 November)

Event Time Altitude Azimuth Distance (km) Brightness Sun altitude
Rises 04:37:42 0° 360° (N) 2,600 5.7 -15.7°
Reaches altitude 10° 04:40:01 10° 12° (NNE) 1,709 4.9 -15.3°
Maximum altitude 04:43:20 29° 74° (ENE) 928 4.2 -14.7°
Drops below altitude 10° 04:46:37 10° 137° (SE) 1,693 5.5 -14.1°
Sets 04:48:55 0° 148° (SSE) 2,571 6.3 -13.7°
